Effective Sunday, March 17, 2024, the National Weather Service National Data Buoy Center will discontinue its Dial-A-Buoy Interactive Voice Response system. For more information, see Service Change Notice 24-06 (PDF).

Station PBWM4 - 9014095 - Port Huron, North of Blue Water Bridge, MI Image indicating link to RSS feed of recent meteorological observations for station PBWM4


Conditions at PBWM4 as of
(1:00 pm EST)
1800 GMT on 03/01/2024:
     

Click on the graph icon in the table below to see a time series plot of the last five days of that observation.

5-day plot - Atmospheric Pressure Atmospheric Pressure (PRES):30.24 in
5-day plot - Pressure Tendency Pressure Tendency (PTDY):-0.08 in ( Falling )
5-day plot - Air Temperature Air Temperature (ATMP): 43.2 °F
NOS Water Level Observation Network Water Level
Previous observations
TIME
(EST)
5-day plot - Wind Direction
WDIR
 
5-day plot - Wind Speed
WSPD
kts
5-day plot - Wind Gust
GST
kts
5-day plot - Wave Height
WVHT
ft
5-day plot - Dominant Wave Period
DPD
sec
5-day plot - Average Wave Period
APD
sec
5-day plot - Mean Wave Direction
MWD
 
5-day plot - Atmospheric Pressure
PRES
in
5-day plot - Pressure Tendency
PTDY
in
5-day plot - Air Temperature
ATMP
°F
5-day plot - Water Temperature
WTMP
°F
5-day plot - Dew Point
DEWP
°F
5-day plot - Salinity
SAL
psu
5-day plot - Visibility
VIS
nmi
5-day plot - Tide (above MLLW)
TIDE
ft
2024-03-01 12:54 pm-------30.24- 43.7-----
2024-03-01 12:48 pm-------30.24- 43.0-----
2024-03-01 12:42 pm-------30.25- 43.5-----
2024-03-01 12:36 pm-------30.25- 43.5-----
2024-03-01 12:30 pm-------30.25- 43.3-----
2024-03-01 12:24 pm-------30.26- 43.5-----
2024-03-01 12:18 pm-------30.26- 42.8-----
2024-03-01 12:12 pm-------30.27- 43.3-----
2024-03-01 12:06 pm-------30.27- 42.4-----
2024-03-01 12:00 pm-------30.27-0.06 43.0-----
2024-03-01 11:54 am-------30.27- 42.1-----
2024-03-01 11:48 am-------30.28- 42.1-----
2024-03-01 11:42 am-------30.28- 41.4-----
2024-03-01 11:36 am-------30.29- 41.4-----
2024-03-01 11:30 am-------30.29- 40.8-----
2024-03-01 11:24 am-------30.30- 40.6-----
2024-03-01 11:18 am-------30.30- 40.8-----
2024-03-01 11:12 am-------30.30- 40.5-----
2024-03-01 11:06 am-------30.30- 39.9-----
2024-03-01 11:00 am-------30.30-0.04 39.7-----
2024-03-01 10:54 am-------30.31- 39.4-----
2024-03-01 10:48 am-------30.30- 39.2-----
2024-03-01 10:42 am-------30.31- 38.5-----
2024-03-01 10:36 am-------30.31- 38.7-----
2024-03-01 10:30 am-------30.31- 38.7-----
2024-03-01 10:24 am-------30.32- 38.5-----
2024-03-01 10:18 am-------30.32-------
2024-03-01 10:12 am-------30.32-------
2024-03-01 10:06 am-------30.32-------
2024-03-01 10:00 am-------30.32-0.02------
2024-03-01 09:54 am-------30.32-------
2024-03-01 09:48 am-------30.32-------
2024-03-01 09:42 am-------30.32-------
2024-03-01 09:36 am-------30.32-------
2024-03-01 09:30 am-------30.33-------
2024-03-01 09:24 am-------30.33-------
2024-03-01 09:18 am-------30.33-------
2024-03-01 09:12 am-------30.33-------
2024-03-01 09:06 am-------30.33-------
2024-03-01 09:00 am-------30.33+0.00------
2024-03-01 08:54 am-------30.33-------
2024-03-01 08:48 am-------30.33-------
2024-03-01 08:42 am-------30.33-------
2024-03-01 08:36 am-------30.34-------
2024-03-01 08:30 am-------30.34-------
2024-03-01 08:24 am-------30.34-------
2024-03-01 08:18 am-------30.34-------
2024-03-01 08:12 am-------30.34-------
2024-03-01 08:06 am-------30.34-------
2024-03-01 08:00 am-------30.34+0.03------
2024-03-01 07:54 am-------30.34-------
2024-03-01 07:48 am-------30.34-------
2024-03-01 07:42 am-------30.34-------
2024-03-01 07:36 am-------30.34-------
2024-03-01 07:30 am-------30.34-------
2024-03-01 07:24 am-------30.33-------
2024-03-01 07:18 am-------30.33-------
2024-03-01 07:12 am-------30.33-------
2024-03-01 07:06 am-------30.33-------
2024-03-01 07:00 am-------30.33+0.02------
2024-03-01 06:54 am-------30.33-------
2024-03-01 06:48 am-------30.33-------
2024-03-01 06:42 am-------30.33-------
2024-03-01 06:36 am-------30.33-------
2024-03-01 06:30 am-------30.33-------
2024-03-01 06:24 am-------30.32-------
2024-03-01 06:18 am-------30.32-------
2024-03-01 06:12 am-------30.32-------
2024-03-01 06:06 am-------30.32-------
2024-03-01 06:00 am-------30.32+0.00------
2024-03-01 05:54 am-------30.32-------
2024-03-01 05:48 am-------30.32-------
2024-03-01 05:42 am-------30.32-------
2024-03-01 05:36 am-------30.32-------
2024-03-01 05:30 am-------30.32-------
2024-03-01 05:24 am-------30.32-------
2024-03-01 05:18 am-------30.32-------
2024-03-01 05:12 am-------30.31-------
2024-03-01 05:06 am-------30.31-------
2024-03-01 05:00 am-------30.31-0.01------
2024-03-01 04:54 am-------30.32-------
2024-03-01 04:48 am-------30.32-------
2024-03-01 04:42 am-------30.31-------
2024-03-01 04:36 am-------30.31-------
2024-03-01 04:30 am-------30.31-------
2024-03-01 04:24 am-------30.31-------
2024-03-01 04:18 am-------30.31-------
2024-03-01 04:12 am-------30.31-------
2024-03-01 04:06 am-------30.31-------
2024-03-01 04:00 am-------30.31-0.01------
2024-03-01 03:54 am-------30.31-------
2024-03-01 03:48 am-------30.31-------
2024-03-01 03:42 am-------30.31-------
2024-03-01 03:36 am-------30.31-------
2024-03-01 03:30 am-------30.31-------
2024-03-01 03:24 am-------30.32-------
2024-03-01 03:18 am-------30.32-------
2024-03-01 03:12 am-------30.32-------
2024-03-01 03:06 am-------30.32-------
2024-03-01 03:00 am-------30.32+0.00------
2024-03-01 02:54 am-------30.32-------
2024-03-01 02:48 am-------30.32-------
2024-03-01 02:42 am-------30.32-------
2024-03-01 02:36 am-------30.32-------
2024-03-01 02:30 am-------30.32-------
2024-03-01 02:24 am-------30.33-------
2024-03-01 02:18 am-------30.33-------
2024-03-01 02:12 am-------30.33-------
2024-03-01 02:06 am-------30.33-------
2024-03-01 02:00 am-------30.33+0.00------
2024-03-01 01:54 am-------30.32-------
2024-03-01 01:48 am-------30.32-------
2024-03-01 01:42 am-------30.32-------
2024-03-01 01:36 am-------30.32-------
2024-03-01 01:30 am-------30.32-------
2024-03-01 01:24 am-------30.32-------
2024-03-01 01:18 am-------30.32-------
2024-03-01 01:12 am-------30.32-------
2024-03-01 01:06 am-------30.32-------
2024-03-01 01:00 am-------30.32+0.00------
2024-03-01 12:54 am-------30.32-------
2024-03-01 12:48 am-------30.32-------
2024-03-01 12:42 am-------30.32-------
2024-03-01 12:36 am-------30.32-------
2024-03-01 12:30 am-------30.32-------
2024-03-01 12:24 am-------30.32-------
2024-03-01 12:18 am-------30.32-------
2024-03-01 12:12 am-------30.32-------
2024-03-01 12:06 am-------30.32-------
2024-03-01 12:00 am-------30.32+0.00------
2024-02-29 11:54 pm-------30.32-------
2024-02-29 11:48 pm-------30.32-------
2024-02-29 11:42 pm-------30.32-------
2024-02-29 11:36 pm-------30.32-------
2024-02-29 11:30 pm-------30.32-------
2024-02-29 11:24 pm-------30.32-------
2024-02-29 11:18 pm-------30.32-------
2024-02-29 11:12 pm-------30.32-------
2024-02-29 11:06 pm-------30.32-------
2024-02-29 11:00 pm-------30.32-0.01------
2024-02-29 10:54 pm-------30.32-------
2024-02-29 10:48 pm-------30.32-------
2024-02-29 10:42 pm-------30.32-------
2024-02-29 10:36 pm-------30.32-------
2024-02-29 10:30 pm-------30.33-------
2024-02-29 10:24 pm-------30.33-------
2024-02-29 10:18 pm-------30.33-------
2024-02-29 10:12 pm-------30.33-------
2024-02-29 10:06 pm-------30.33-------
2024-02-29 10:00 pm-------30.32-0.02------
2024-02-29 09:54 pm-------30.33-------
2024-02-29 09:48 pm-------30.33-------
2024-02-29 09:42 pm-------30.33-------
2024-02-29 09:36 pm-------30.33-------
2024-02-29 09:30 pm-------30.32-------
2024-02-29 09:24 pm-------30.32-------
2024-02-29 09:18 pm-------30.32-------
2024-02-29 09:12 pm-------30.32-------
2024-02-29 09:06 pm-------30.32-------
2024-02-29 09:00 pm-------30.32-0.03------
2024-02-29 08:54 pm-------30.32-------
2024-02-29 08:48 pm-------30.32-------
2024-02-29 08:42 pm-------30.32-------
2024-02-29 08:36 pm-------30.33-------
2024-02-29 08:30 pm-------30.33-------
2024-02-29 08:24 pm-------30.33-------
2024-02-29 08:18 pm-------30.33-------
2024-02-29 08:12 pm-------30.33-------
2024-02-29 08:06 pm-------30.33-------
2024-02-29 08:00 pm-------30.33-0.01------
2024-02-29 07:54 pm-------30.34-------
2024-02-29 07:48 pm-------30.34-------
2024-02-29 07:42 pm-------30.34-------
2024-02-29 07:36 pm-------30.34-------
2024-02-29 07:30 pm-------30.34-------
2024-02-29 07:24 pm-------30.35-------
2024-02-29 07:18 pm-------30.35-------
2024-02-29 07:12 pm-------30.35-------
2024-02-29 07:06 pm-------30.35-------
2024-02-29 07:00 pm-------30.35+0.00------
2024-02-29 06:54 pm-------30.35-------
2024-02-29 06:48 pm-------30.35-------
2024-02-29 06:42 pm-------30.35-------
2024-02-29 06:36 pm-------30.35-------
2024-02-29 05:48 pm-------30.34-------
2024-02-29 05:42 pm-------30.35-------
2024-02-29 05:36 pm-------30.35-------
2024-02-29 05:30 pm-------30.34-------
2024-02-29 05:24 pm-------30.34-------
2024-02-29 05:18 pm-------30.34-------
2024-02-29 05:12 pm-------30.34-------
2024-02-29 05:06 pm-------30.34-------
2024-02-29 05:00 pm-------30.35-0.02------
2024-02-29 04:54 pm-------30.35-------
2024-02-29 04:48 pm-------30.35-------
2024-02-29 04:42 pm-------30.35-------
2024-02-29 04:36 pm-------30.35-------
2024-02-29 04:30 pm-------30.35-------
2024-02-29 04:24 pm-------30.35-------
2024-02-29 04:18 pm-------30.35-------
2024-02-29 04:12 pm-------30.34-------
2024-02-29 04:06 pm-------30.35-------
2024-02-29 04:00 pm-------30.34-0.04------
2024-02-29 03:54 pm-------30.35-------
2024-02-29 03:48 pm-------30.35-------
2024-02-29 03:42 pm-------30.35-------
2024-02-29 03:36 pm-------30.35-------
2024-02-29 03:30 pm-------30.35-------
2024-02-29 03:24 pm-------30.35-------
2024-02-29 03:18 pm-------30.35-------
2024-02-29 03:12 pm-------30.36-------
2024-02-29 03:06 pm-------30.35-------
2024-02-29 03:00 pm-------30.36-0.04------
2024-02-29 02:54 pm-------30.36-------
2024-02-29 02:48 pm-------30.35-------
2024-02-29 02:42 pm-------30.36-------
2024-02-29 02:36 pm-------30.36-------
2024-02-29 02:30 pm-------30.36-------
2024-02-29 02:24 pm-------30.36-------
2024-02-29 02:18 pm-------30.36-------
2024-02-29 02:12 pm-------30.36-------
2024-02-29 02:06 pm-------30.37-------
2024-02-29 02:00 pm-------30.37-0.02------
2024-02-29 01:54 pm-------30.37-------
2024-02-29 01:48 pm-------30.37-------
2024-02-29 01:42 pm-------30.37-------
2024-02-29 01:36 pm-------30.37-------
2024-02-29 01:30 pm-------30.37-------
2024-02-29 01:24 pm-------30.37-------
2024-02-29 01:18 pm-------30.37-------
2024-02-29 01:12 pm-------30.37-------
2024-02-29 01:06 pm-------30.38-------
2024-02-29 01:00 pm-------30.38-0.01------
2024-02-29 12:54 pm-------30.38-------